Volcan Mountain (221) Station Data

Red Flag Warning: Yes
Fire Weather Zone: 258
SDGE Region: Ramona
Lat/Lon: 33.103/-116.58

Observations

Time Wind Speed/Gust Temp(F) RH Fuel Moist Fuel Temp(F) Dewpt(F) Tmax(F) Tmin(F) Accum Precip 10-min Precip SL Press(mb)
6/27 5:00pm 251 32 G 45 75° 18% - - 28° 79.4° 65.9° - - 1005.0
6/27 4:50pm 250 31 G 44 75° 17% - - 28° 79.4° 65.9° - - 1005.0
6/27 4:40pm 250 32 G 48 76° 16% - - 27° 79.4° 65.9° - - 1005.0
6/27 4:30pm 251 31 G 45 76° 15% - - 24° 79.4° 65.9° - - 1006.0
6/27 4:20pm 252 32 G 44 76° 13% - - 22° 79.4° 65.9° - - 1006.0
6/27 4:10pm 252 29 G 44 77° 14% - - 24° 79.4° 65.9° - - 1006.0
6/27 4:00pm 251 28 G 44 77° 15% - - 25° 79.4° 65.9° - - 1006.0
6/27 3:50pm 250 32 G 45 76° 14% - - 23° 79.4° 65.9° - - 1006.0
6/27 3:40pm 252 31 G 42 77° 13% - - 23° 79.4° 65.9° - - 1006.0
6/27 3:30pm 252 28 G 42 78° 13% - - 24° 79.4° 65.9° - - 1006.0
6/27 3:20pm 252 28 G 41 78° 14% - - 24° 79.4° 65.9° - - 1006.0
6/27 3:10pm 252 25 G 42 78° 15% - - 27° 79.4° 65.9° - - 1006.0
6/27 3:00pm 252 27 G 45 78° 15% - - 26° 79.4° 65.9° - - 1006.0
6/27 2:50pm 246 29 G 44 78° 16% - - 28° 79.4° 65.9° - - 1006.0
6/27 2:40pm 253 25 G 41 78° 17% - - 30° 79.4° 65.9° - - 1006.0
6/27 2:30pm 252 26 G 40 78° 17% - - 30° 79.4° 65.9° - - 1007.0
6/27 2:20pm 250 28 G 41 78° 16% - - 29° 79.4° 65.9° - - 1007.0
6/27 2:10pm 251 26 G 45 78° 16% - - 28° 79.4° 65.9° - - 1007.0
6/27 2:00pm 246 27 G 41 78° 15% - - 26° 79.4° 65.9° - - 1007.0
6/27 1:50pm 250 28 G 38 78° 14% - - 25° 79.4° 65.9° - - 1007.0
6/27 1:40pm 246 29 G 40 78° 14% - - 25° 79.4° 65.9° - - 1007.0
6/27 1:30pm 252 28 G 41 78° 14% - - 25° 79.4° 65.9° - - 1007.0
6/27 1:20pm 254 28 G 41 78° 14% - - 25° 79.4° 65.9° - - 1007.0
6/27 1:10pm 250 31 G 45 78° 14% - - 24° 78.4° 65.9° - - 1007.0
6/27 1:00pm 252 31 G 43 78° 14% - - 24° 78.4° 65.9° - - 1007.0
6/27 12:50pm 252 30 G 43 77° 14% - - 25° 78.2° 65.9° - - 1007.0
6/27 12:40pm 252 30 G 45 77° 14% - - 25° 78.2° 65.9° - - 1007.0
6/27 12:30pm 249 33 G 48 77° 14% - - 25° 77.8° 65.9° - - 1007.0
6/27 12:20pm 251 35 G 47 77° 14% - - 24° 77.8° 65.9° - - 1007.0
6/27 12:10pm 252 33 G 44 77° 15% - - 25° 77.8° 65.9° - - 1007.0
6/27 12:00pm 252 36 G 47 76° 14% - - 24° 76.6° 65.9° - - 1007.0
6/27 11:50am 252 37 G 48 76° 14% - - 23° 76.3° 65.9° - - 1007.0
6/27 11:40am 252 37 G 48 76° 14% - - 24° 76.3° 65.9° - - 1007.0
6/27 11:30am 252 36 G 48 75° 15% - - 24° 76° 65.9° - - 1007.0
6/27 11:20am 253 36 G 46 75° 15% - - 24° 75.8° 65.9° - - 1007.0
6/27 11:10am 253 34 G 48 75° 15% - - 24° 75.7° 65.9° - - 1008.0
6/27 11:00am 250 33 G 45 75° 15% - - 24° 75.2° 65.9° - - 1008.0
6/27 10:50am 251 29 G 38 75° 16% - - 25° 75.2° 65.9° - - 1008.0
6/27 10:40am 253 30 G 39 74° 16% - - 25° 74.8° 65.9° - - 1008.0
6/27 10:30am 252 28 G 37 74° 16% - - 26° 74.7° 65.9° - - 1009.0
6/27 10:20am 252 27 G 35 74° 17% - - 25° 74.3° 65.9° - - 1009.0
6/27 10:10am 251 28 G 38 73° 17% - - 25° 73.7° 65.9° - - 1009.0
6/27 10:00am 251 26 G 35 73° 17% - - 25° 73.3° 65.9° - - 1009.0
6/27 9:50am 253 26 G 40 72° 17% - - 25° 72.8° 65.9° - - 1009.0
6/27 9:40am 252 25 G 35 72° 17% - - 25° 72.5° 65.9° - - 1010.0
6/27 9:30am 253 23 G 33 72° 18% - - 25° 72.3° 65.9° - - 1010.0
6/27 9:20am 253 24 G 36 71° 17% - - 24° 71.6° 65.9° - - 1010.0
6/27 9:10am 253 22 G 32 71° 17% - - 25° 71.6° 65.9° - - 1010.0
6/27 9:00am 255 22 G 33 71° 17% - - 24° 71.5° 65.9° - - 1010.0
6/27 8:50am 256 22 G 30 70° 16% - - 23° 71° 65.9° - - 1010.0
6/27 8:40am 255 24 G 33 70° 16% - - 22° 70.7° 65.9° - - 1010.0
6/27 8:30am 256 25 G 33 70° 16% - - 22° 70.5° 65.9° - - 1010.0
6/27 8:20am 257 26 G 35 70° 16% - - 21° 70.2° 65.9° - - 1010.0
6/27 8:10am 256 26 G 34 69° 15% - - 20° 69.9° 65.9° - - 1010.0
6/27 8:00am 255 26 G 38 69° 15% - - 19° 69.6° 65.9° - - 1010.0
6/27 7:40am 257 26 G 36 69° 14% - - 17° 69.5° 65.9° - - 1010.0
6/27 7:30am 257 26 G 32 68° 14% - - 17° 69.5° 65.9° - - 1010.0
6/27 7:20am 256 26 G 34 68° 13% - - 16° 69.5° 65.9° - - 1010.0
6/27 7:10am 257 26 G 33 68° 14% - - 16° 69.5° 65.9° - - 1010.0
6/27 7:00am 256 26 G 33 67° 14% - - 16° 69.5° 65.9° - - 1010.0
6/27 6:50am 257 26 G 33 67° 14% - - 17° 69.5° 65.9° - - 1010.0
6/27 6:40am 257 26 G 35 67° 14% - - 17° 69.5° 65.9° - - 1010.0
6/27 6:30am 257 26 G 34 67° 14% - - 17° 69.5° 65.9° - - 1010.0
6/27 6:20am 258 27 G 34 67° 14% - - 17° 69.5° 65.9° - - 1010.0
6/27 6:10am 256 28 G 37 67° 15% - - 17° 69.5° 65.9° - - 1010.0
6/27 6:00am 256 28 G 38 67° 15% - - 18° 69.5° 65.9° - - 1010.0
6/27 5:50am 254 28 G 36 67° 15% - - 19° 69.5° 65.9° - - 1010.0
6/27 5:40am 254 29 G 38 67° 16% - - 19° 69.5° 65.9° - - 1009.0
6/27 5:30am 254 29 G 38 67° 16% - - 19° 69.5° 65.9° - - 1010.0
6/27 5:20am 254 29 G 40 67° 16% - - 19° 69.5° 65.9° - - 1010.0
6/27 5:10am 254 29 G 37 67° 16% - - 19° 69.5° 65.9° - - 1010.0
6/27 5:00am 255 29 G 37 67° 15% - - 18° 69.5° 65.9° - - 1010.0
6/27 4:50am 254 28 G 38 67° 15% - - 18° 69.5° 65.9° - - 1009.0
6/27 4:40am 254 29 G 38 67° 15% - - 18° 69.5° 65.9° - - 1009.0
6/27 4:30am 255 29 G 39 67° 16% - - 19° 69.5° 65.9° - - 1009.0
6/27 4:20am 256 30 G 39 67° 16% - - 19° 69.5° 65.9° - - 1009.0
6/27 4:10am 255 29 G 40 67° 16% - - 19° 69.5° 65.9° - - 1009.0
6/27 4:00am 255 30 G 41 67° 16% - - 19° 69.5° 65.9° - - 1009.0
6/27 3:50am 254 31 G 40 67° 16% - - 20° 69.5° 65.9° - - 1009.0
6/27 3:40am 255 29 G 42 67° 16% - - 20° 69.5° 65.9° - - 1009.0
6/27 3:30am 255 32 G 41 67° 16% - - 20° 69.5° 65.9° - - 1008.0
6/27 3:20am 252 32 G 45 67° 17% - - 21° 69.5° 65.9° - - 1009.0
6/27 3:10am 254 32 G 43 67° 17% - - 21° 69.5° 65.9° - - 1009.0
6/27 3:00am 252 32 G 45 67° 17% - - 21° 69.5° 65.9° - - 1009.0
6/27 2:50am 253 32 G 43 67° 17% - - 21° 69.5° 65.9° - - 1009.0
6/27 2:40am 253 31 G 45 66° 18% - - 21° 69.5° 65.9° - - 1009.0
6/27 2:30am 253 32 G 43 66° 18% - - 21° 69.5° 65.9° - - 1009.0
6/27 2:20am 253 34 G 46 67° 17% - - 21° 69.5° 66.3° - - 1009.0
6/27 2:10am 253 36 G 46 67° 17% - - 21° 69.5° 66.5° - - 1009.0
6/27 2:00am 252 36 G 47 67° 17% - - 20° 69.5° 66.5° - - 1008.0
6/27 1:50am 252 36 G 45 68° 16% - - 20° 69.5° 66.5° - - 1008.0
6/27 1:40am 253 36 G 47 68° 16% - - 20° 69.5° 66.5° - - 1008.0
6/27 1:30am 250 36 G 46 68° 15% - - 19° 69.5° 66.5° - - 1008.0
6/27 1:20am 251 35 G 46 68° 15% - - 19° 69.5° 66.5° - - 1009.0
6/27 1:10am 252 36 G 49 68° 16% - - 20° 69.5° 66.5° - - 1009.0
6/27 1:00am 251 35 G 45 68° 16% - - 20° 69.5° 66.5° - - 1009.0
6/27 12:50am 253 33 G 45 67° 16% - - 20° 69.5° 66.5° - - 1009.0
6/27 12:40am 254 30 G 42 67° 17% - - 20° 69.5° 66.5° - - 1010.0
6/27 12:30am 253 28 G 38 68° 16% - - 20° 69.5° 66.9° - - 1010.0
6/27 12:20am 254 28 G 40 68° 15% - - 19° 69.5° 67.9° - - 1010.0
6/27 12:10am 253 31 G 44 69° 15% - - 19° 69.5° 68.5° - - 1009.0
6/27 12:00am 255 33 G 43 69° 14% - - 19° 85.6° 68.7° - - 1009.0
6/26 11:50pm 255 36 G 53 69° 15% - - 20° 85.6° 68.7° - - 1008.0
6/26 11:40pm 255 36 G 51 69° 16% - - 20° 85.6° 68.7° - - 1008.0
6/26 11:30pm 255 37 G 49 69° 16% - - 21° 85.6° 68.7° - - 1009.0
6/26 11:20pm 253 35 G 45 69° 17% - - 22° 85.6° 68.8° - - 1009.0
6/26 11:10pm 254 35 G 48 69° 17% - - 22° 85.6° 68.8° - - 1009.0
6/26 11:00pm 254 33 G 44 69° 17% - - 22° 85.6° 68.9° - - 1009.0
6/26 10:50pm 255 33 G 42 69° 17% - - 22° 85.6° 69° - - 1010.0
6/26 10:40pm 256 31 G 39 69° 17% - - 22° 85.6° 69° - - 1010.0
6/26 10:30pm 255 30 G 41 70° 16% - - 22° 85.6° 69° - - 1010.0
6/26 10:20pm 255 28 G 38 70° 16% - - 22° 85.6° 69° - - 1011.0
6/26 10:10pm 254 27 G 33 70° 16% - - 22° 85.6° 69° - - 1011.0
6/26 10:00pm 257 25 G 35 70° 16% - - 22° 85.6° 69° - - 1011.0
6/26 9:50pm 254 24 G 33 69° 16% - - 22° 85.6° 69° - - 1011.0
6/26 9:40pm 253 24 G 32 69° 16% - - 22° 85.6° 69° - - 1011.0
6/26 9:30pm 254 24 G 32 70° 16% - - 21° 85.6° 69.3° - - 1011.0
6/26 9:20pm 252 23 G 32 70° 15% - - 20° 85.6° 69.4° - - 1011.0
6/26 9:10pm 254 21 G 27 70° 15% - - 20° 85.6° 69.6° - - 1012.0
6/26 9:00pm 251 21 G 28 70° 14% - - 19° 85.6° 69.7° - - 1012.0
6/26 8:50pm 251 19 G 25 70° 14% - - 20° 85.6° 69.7° - - 1012.0
6/26 8:40pm 252 18 G 24 70° 15% - - 21° 85.6° 69.7° - - 1012.0
6/26 8:30pm 254 16 G 22 70° 17% - - 23° 85.6° 69.7° - - 1012.0
6/26 8:20pm 255 15 G 20 70° 17% - - 24° 85.6° 69.9° - - 1012.0
6/26 8:10pm 255 14 G 21 71° 16% - - 23° 85.6° 70.5° - - 1012.0
6/26 8:00pm 252 15 G 23 72° 16% - - 23° 85.6° 71.3° - - 1011.0
6/26 7:50pm 252 16 G 23 72° 17% - - 25° 85.6° 71.8° - - 1011.0
6/26 7:40pm 252 15 G 26 73° 18% - - 28° 85.6° 72.6° - - 1011.0
6/26 7:30pm 252 16 G 23 74° 18% - - 28° 85.6° 73.4° - - 1011.0
6/26 7:20pm 250 17 G 26 75° 18% - - 28° 85.6° 74.2° - - 1010.0
6/26 7:10pm 250 17 G 28 76° 17% - - 28° 85.6° 75.2° - - 1010.0
6/26 7:00pm 250 18 G 26 76° 15% - - 25° 85.6° 75.7° - - 1010.0
6/26 6:50pm 251 18 G 31 77° 13% - - 23° 85.6° 75.7° - - 1010.0
6/26 6:40pm 249 19 G 29 78° 12% - - 21° 85.6° 75.7° - - 1009.0
6/26 6:30pm 249 19 G 32 78° 13% - - 22° 85.6° 75.7° - - 1009.0
6/26 6:20pm 250 19 G 29 78° 14% - - 25° 85.6° 75.7° - - 1009.0
6/26 6:10pm 247 18 G 28 79° 14% - - 26° 85.6° 75.7° - - 1009.0
6/26 6:00pm 246 18 G 26 80° 14% - - 26° 85.6° 75.7° - - 1009.0
6/26 5:50pm 248 17 G 29 80° 14% - - 27° 85.6° 75.7° - - 1009.0
6/26 5:40pm 248 16 G 34 81° 14% - - 27° 85.6° 75.7° - - 1009.0
6/26 5:30pm 259 14 G 30 81° 13% - - 26° 85.6° 75.7° - - 1009.0
6/26 5:20pm 258 16 G 25 81° 13% - - 27° 85.6° 75.7° - - 1009.0
6/26 5:10pm 258 16 G 27 81° 13% - - 27° 85.6° 75.7° - - 1009.0
6/26 5:00pm 253 20 G 31 81° 13% - - 26° 85.6° 75.7° - - 1009.0
6/26 4:50pm 252 19 G 33 82° 13% - - 26° 85.6° 75.7° - - 1009.0
6/26 4:40pm 252 19 G 30 82° 13% - - 27° 85.6° 75.7° - - 1009.0
6/26 4:30pm 250 22 G 35 82° 13% - - 26° 85.6° 75.7° - - 1009.0
6/26 4:20pm 258 17 G 27 83° 13% - - 28° 85.6° 75.7° - - 1009.0
6/26 4:10pm 255 18 G 33 83° 14% - - 29° 85.6° 75.7° - - 1009.0
6/26 4:00pm 252 17 G 27 83° 14% - - 29° 85.6° 75.7° - - 1009.0
6/26 3:50pm 252 21 G 33 83° 14% - - 29° 85.6° 75.7° - - 1009.0
6/26 3:40pm 252 17 G 27 83° 16% - - 32° 85.6° 75.7° - - 1009.0
6/26 3:30pm 257 17 G 28 84° 16% - - 32° 85.6° 75.7° - - 1009.0
6/26 3:20pm 249 18 G 29 83° 17% - - 33° 85.6° 75.7° - - 1010.0
6/26 3:10pm 246 18 G 33 83° 18% - - 35° 85.6° 75.7° - - 1010.0
6/26 3:00pm 247 17 G 27 83° 19% - - 36° 85.6° 75.7° - - 1010.0
6/26 2:50pm 247 18 G 29 84° 19% - - 37° 85.6° 75.7° - - 1010.0
6/26 2:40pm 251 17 G 32 84° 19% - - 36° 85.6° 75.7° - - 1010.0
6/26 2:30pm 248 16 G 27 83° 19% - - 37° 85.6° 75.7° - - 1010.0
6/26 2:20pm 257 14 G 26 84° 19% - - 37° 85.6° 75.7° - - 1010.0
6/26 2:10pm 260 14 G 25 85° 15% - - 33° 85.6° 75.7° - - 1010.0
6/26 2:00pm 262 15 G 24 84° 15% - - 32° 85.6° 75.7° - - 1010.0
6/26 1:50pm 258 15 G 25 85° 15% - - 31° 85.6° 75.7° - - 1010.0
6/26 1:40pm 259 15 G 25 84° 15% - - 32° 85.6° 75.7° - - 1010.0
6/26 1:30pm 257 15 G 25 84° 16% - - 33° 85.6° 75.7° - - 1010.0
6/26 1:20pm 249 13 G 23 84° 16% - - 32° 85.6° 75.7° - - 1010.0
6/26 1:10pm 250 15 G 27 84° 16% - - 33° 85.6° 75.7° - - 1010.0
6/26 1:00pm 246 16 G 29 84° 16% - - 32° 85.6° 75.7° - - 1010.0
6/26 12:50pm 253 15 G 26 85° 16% - - 33° 85.6° 75.7° - - 1010.0
6/26 12:40pm 262 13 G 26 85° 14% - - 31° 85.6° 75.7° - - 1010.0
6/26 12:30pm 260 13 G 23 84° 14% - - 30° 85° 75.7° - - 1010.0
6/26 12:20pm 267 12 G 25 84° 15% - - 31° 85° 75.7° - - 1010.0
6/26 12:10pm 264 13 G 23 84° 14% - - 29° 84.5° 75.7° - - 1011.0
6/26 12:00pm 263 14 G 22 83° 14% - - 29° 84.2° 75.7° - - 1011.0
6/26 11:50am 260 15 G 24 83° 15% - - 30° 84° 75.7° - - 1011.0
6/26 11:40am 259 15 G 23 83° 15% - - 31° 84° 75.7° - - 1011.0
6/26 11:30am 258 16 G 23 83° 15% - - 31° 84° 75.7° - - 1011.0
6/26 11:20am 257 16 G 25 83° 15% - - 31° 83.5° 75.7° - - 1011.0
6/26 11:10am 257 16 G 27 83° 15% - - 31° 83.4° 75.7° - - 1011.0
6/26 11:00am 258 17 G 26 82° 15% - - 31° 83° 75.7° - - 1011.0
6/26 10:50am 259 16 G 28 82° 16% - - 31° 82.9° 75.7° - - 1011.0
6/26 10:40am 257 14 G 21 82° 16% - - 32° 82.9° 75.7° - - 1011.0
6/26 10:30am 262 13 G 23 82° 17% - - 33° 82.8° 75.7° - - 1011.0
6/26 10:20am 267 12 G 18 82° 17% - - 32° 82.5° 75.7° - - 1011.0
6/26 10:10am 263 12 G 19 81° 17% - - 32° 81.7° 75.7° - - 1011.0
6/26 10:00am 260 14 G 21 81° 17% - - 32° 81.3° 75.7° - - 1011.0
6/26 9:50am 262 15 G 23 80° 17% - - 31° 80.9° 75.7° - - 1011.0
6/26 9:40am 262 14 G 21 80° 17% - - 31° 80.5° 75.7° - - 1011.0
6/26 9:30am 260 13 G 19 80° 16% - - 30° 80.3° 75.7° - - 1011.0
6/26 9:20am 263 12 G 18 79° 17% - - 30° 80° 75.7° - - 1011.0
6/26 9:10am 264 12 G 17 79° 17% - - 31° 79.8° 75.7° - - 1012.0
6/26 9:00am 264 12 G 20 79° 16% - - 30° 79.7° 75.7° - - 1012.0
6/26 8:50am 265 12 G 18 79° 16% - - 29° 79.7° 75.7° - - 1011.0
6/26 8:40am 267 11 G 18 79° 16% - - 29° 79.7° 75.7° - - 1011.0
6/26 8:30am 267 10 G 17 79° 16% - - 29° 79.6° 75.7° - - 1011.0
6/26 8:20am 267 10 G 16 79° 16% - - 28° 79.3° 75.7° - - 1011.0
6/26 8:10am 267 9 G 16 78° 16% - - 28° 78.9° 75.7° - - 1011.0
6/26 8:00am 268 10 G 17 78° 16% - - 28° 78.7° 75.7° - - 1011.0
6/26 7:50am 267 10 G 17 78° 16% - - 28° 78.4° 75.7° - - 1011.0
6/26 7:40am 266 10 G 18 78° 16% - - 27° 78.4° 75.7° - - 1011.0
6/26 7:30am 266 10 G 15 77° 15% - - 27° 78.4° 75.7° - - 1011.0
6/26 7:20am 266 10 G 17 77° 15% - - 26° 78.4° 75.7° - - 1012.0
6/26 7:10am 265 10 G 17 77° 15% - - 26° 78.4° 75.7° - - 1011.0
6/26 7:00am 265 11 G 17 77° 15% - - 26° 78.4° 75.7° - - 1011.0
6/26 6:50am 265 12 G 20 77° 14% - - 25° 78.4° 75.7° - - 1011.0
6/26 6:40am 265 12 G 19 77° 14% - - 25° 78.4° 75.7° - - 1011.0
6/26 6:30am 266 13 G 20 77° 14% - - 25° 78.4° 75.7° - - 1011.0
6/26 6:20am 265 12 G 18 77° 15% - - 25° 78.4° 75.7° - - 1011.0
6/26 6:10am 268 12 G 18 77° 15% - - 26° 78.4° 75.7° - - 1011.0
6/26 6:00am 268 13 G 18 77° 15% - - 26° 78.4° 75.7° - - 1011.0